Location: Old Broadwell Mill Observatory
(33.8015°N, 85.8137°W)
Time: 05:44:19
(UTC-05:00)

Gurwin Techsat 1B - Visible Passes

Search period start: 24 July 2016 00:00
Search period end: 03 August 2016 00:00
Orbit: 813 x 813 km, 98.6° (Epoch: 23 July)

Date Brightness Start Highest point End Pass type
(mag) Time Alt. Az. Time Alt. Az. Time Alt. Az.
24 Jul 10.9 01:39:39 10° NE 01:41:55 15° E 01:41:55 15° E visible
24 Jul 8.9 03:17:55 10° N 03:23:04 51° WNW 03:23:07 50° WNW visible
25 Jul 8.6 02:55:01 10° NNE 03:00:00 78° N 03:00:00 78° N visible
26 Jul 9.2 02:32:19 10° NNE 02:36:52 53° ENE 02:36:52 53° ENE visible
26 Jul 10.4 04:13:58 10° NNW 04:16:59 15° WNW 04:18:05 15° W visible
27 Jul 10.0 02:09:56 10° NNE 02:13:45 31° ENE 02:13:45 31° ENE visible
27 Jul 9.8 03:50:11 10° NNW 03:54:27 25° WNW 03:54:57 25° WNW visible
28 Jul 10.7 01:47:57 10° NE 01:50:37 19° ENE 01:50:37 19° ENE visible
28 Jul 9.2 03:26:53 10° N 03:31:50 41° WNW 03:31:50 41° WNW visible
29 Jul 11.2 01:27:13 10° ENE 01:27:29 10° ENE 01:27:29 10° ENE visible
29 Jul 8.7 03:03:52 10° N 03:08:42 66° NW 03:08:42 66° NW visible
30 Jul 9.0 02:41:05 10° NNE 02:45:34 59° NE 02:45:34 59° NE visible
30 Jul 10.6 04:23:31 10° NW 04:25:41 13° WNW 04:26:46 12° WNW visible
31 Jul 9.8 02:18:34 10° NNE 02:22:26 36° ENE 02:22:26 36° ENE visible
31 Jul 10.1 03:59:19 10° NNW 04:03:11 21° WNW 04:03:38 21° WNW visible
01 Aug 10.5 01:56:23 10° NE 01:59:18 22° ENE 01:59:18 22° ENE visible
01 Aug 9.5 03:35:52 10° N 03:40:30 34° WNW 03:40:30 34° WNW visible
02 Aug 11.1 01:34:55 10° ENE 01:36:10 13° ENE 01:36:10 13° ENE visible
02 Aug 9.0 03:12:45 10° N 03:17:22 53° NW 03:17:22 53° NW visible
